MQT3SW LSZH-ELLX

Flight info

Callsign MQT3SW
Flight time 0h 37m
Altitude 30000
Route VEBIT T10 TORPA DCT EDOPI DCT GIVOR
Aircraft B738/M-SDE2E3FGHIRWXY/LB1

Departure

Time 2026-05-01 14:36
Airport Zürich Airport (LSZH)

Arrival

Time 2026-05-01 15:13
Airport Luxembourg-Findel International Airport (ELLX)
Time Latitude Longitude Altitude Speed Heading
2026-05-01 14:07 47.46156 8.55683 1401 ft 0 kts 185°
2026-05-01 14:25 47.46169 8.55685 1401 ft 9 kts 185°
2026-05-01 14:26 47.46190 8.55688 1401 ft 8 kts 185°
2026-05-01 14:26 47.46240 8.55682 1404 ft 5 kts 127°
2026-05-01 14:26 47.46246 8.55650 1403 ft 6 kts 96°
2026-05-01 14:27 47.46247 8.55634 1409 ft 2 kts 96°
2026-05-01 14:30 47.46247 8.55641 1409 ft 4 kts 96°
2026-05-01 14:31 47.46234 8.55814 1402 ft 12 kts 96°
2026-05-01 14:31 47.46221 8.55948 1410 ft 12 kts 107°
2026-05-01 14:31 47.46176 8.56038 1410 ft 10 kts 135°
2026-05-01 14:31 47.46132 8.56098 1411 ft 8 kts 138°
2026-05-01 14:32 47.46075 8.56175 1408 ft 19 kts 136°
2026-05-01 14:32 47.46015 8.56260 1412 ft 8 kts 136°
2026-05-01 14:32 47.45961 8.56310 1414 ft 6 kts 166°
2026-05-01 14:32 47.45888 8.56303 1413 ft 17 kts 185°
2026-05-01 14:33 47.45803 8.56294 1420 ft 5 kts 187°
2026-05-01 14:34 47.45775 8.56288 1418 ft 12 kts 188°
2026-05-01 14:34 47.45725 8.56258 1415 ft 8 kts 240°
2026-05-01 14:34 47.45721 8.56214 1414 ft 0 kts 270°
2026-05-01 14:35 47.45733 8.56021 1414 ft 47 kts 276°
2026-05-01 14:35 47.45791 8.55199 1405 ft 113 kts 276°
2026-05-01 14:36 47.45884 8.53779 1459 ft 156 kts 276°
2026-05-01 14:36 47.46012 8.52136 1980 ft 165 kts 277°
2026-05-01 14:36 47.46134 8.50429 2596 ft 174 kts 276°
2026-05-01 14:36 47.46247 8.48555 3091 ft 192 kts 271°
2026-05-01 14:37 47.46050 8.47243 3389 ft 205 kts 241°
2026-05-01 14:37 47.45062 8.45622 4028 ft 216 kts 221°
2026-05-01 14:37 47.43968 8.44083 4768 ft 228 kts 229°
2026-05-01 14:37 47.42846 8.42189 5099 ft 248 kts 230°
2026-05-01 14:38 47.41766 8.40229 6263 ft 248 kts 232°
2026-05-01 14:38 47.40691 8.38114 6993 ft 265 kts 234°
2026-05-01 14:38 47.39586 8.35853 7800 ft 279 kts 234°
2026-05-01 14:38 47.38538 8.33432 8791 ft 282 kts 245°
2026-05-01 14:39 47.37673 8.30818 9776 ft 286 kts 243°
2026-05-01 14:39 47.36726 8.28181 10549 ft 299 kts 242°
2026-05-01 14:39 47.35706 8.25403 11116 ft 316 kts 242°
2026-05-01 14:39 47.34653 8.22506 11620 ft 334 kts 242°
2026-05-01 14:40 47.33543 8.19396 12121 ft 351 kts 243°
2026-05-01 14:40 47.32399 8.16157 12841 ft 360 kts 243°
2026-05-01 14:40 47.31234 8.12864 13648 ft 366 kts 242°
2026-05-01 14:40 47.30047 8.09523 14477 ft 370 kts 242°
2026-05-01 14:41 47.28844 8.06145 15292 ft 375 kts 242°
2026-05-01 14:41 47.27776 8.02620 16085 ft 379 kts 252°
2026-05-01 14:41 47.27272 7.98797 16854 ft 384 kts 266°
2026-05-01 14:41 47.27402 7.94852 17610 ft 387 kts 278°
2026-05-01 14:42 47.27777 7.90902 18332 ft 392 kts 278°
2026-05-01 14:42 47.28171 7.86917 19029 ft 396 kts 278°
2026-05-01 14:42 47.28569 7.82872 19713 ft 400 kts 278°
2026-05-01 14:42 47.28960 7.78796 20372 ft 404 kts 278°
2026-05-01 14:43 47.29347 7.74674 21010 ft 408 kts 278°
2026-05-01 14:43 47.29734 7.70508 21613 ft 412 kts 278°
2026-05-01 14:43 47.30127 7.66299 22175 ft 417 kts 278°
2026-05-01 14:43 47.30650 7.62091 22752 ft 420 kts 285°
2026-05-01 14:44 47.31531 7.57955 23292 ft 424 kts 288°
2026-05-01 14:44 47.33344 7.49635 24260 ft 432 kts 288°
2026-05-01 14:44 47.34267 7.45407 24784 ft 434 kts 288°
2026-05-01 14:45 47.35189 7.41156 25283 ft 437 kts 288°
2026-05-01 14:45 47.37039 7.32569 26185 ft 442 kts 287°
2026-05-01 14:45 47.37972 7.28227 26559 ft 446 kts 287°
2026-05-01 14:46 47.38912 7.23852 26918 ft 449 kts 287°
2026-05-01 14:46 47.40774 7.14986 27663 ft 454 kts 283°
2026-05-01 14:46 47.41447 7.10428 28048 ft 455 kts 282°
2026-05-01 14:47 47.42123 7.05878 28591 ft 452 kts 282°
2026-05-01 14:47 47.42797 7.01346 28978 ft 453 kts 282°
2026-05-01 14:47 47.43460 6.96844 29218 ft 456 kts 282°
2026-05-01 14:48 47.44795 6.87656 29722 ft 458 kts 282°
2026-05-01 14:48 47.45460 6.83056 29969 ft 458 kts 282°
2026-05-01 14:48 47.47135 6.74028 30015 ft 451 kts 296°
2026-05-01 14:49 47.51138 6.67059 30034 ft 450 kts 326°
2026-05-01 14:49 47.56999 6.64010 30045 ft 451 kts 351°
2026-05-01 14:50 47.69423 6.61577 30018 ft 450 kts 352°
2026-05-01 14:51 47.78724 6.59671 30015 ft 450 kts 352°
2026-05-01 14:52 47.88036 6.57799 30020 ft 451 kts 352°
2026-05-01 14:53 47.97331 6.55806 30019 ft 452 kts 350°
2026-05-01 14:53 48.03528 6.54238 30010 ft 450 kts 350°
2026-05-01 14:54 48.09719 6.52757 30024 ft 450 kts 351°
2026-05-01 14:54 48.15900 6.51296 30020 ft 450 kts 351°
2026-05-01 14:55 48.22076 6.49795 30018 ft 449 kts 351°
2026-05-01 14:55 48.28252 6.48301 30008 ft 450 kts 351°
2026-05-01 14:56 48.34426 6.46811 30014 ft 449 kts 351°
2026-05-01 14:56 48.40559 6.45321 30014 ft 449 kts 351°
2026-05-01 14:57 48.46728 6.43819 30015 ft 449 kts 351°
2026-05-01 14:57 48.55985 6.41560 30018 ft 449 kts 351°
2026-05-01 14:58 48.62153 6.40049 30018 ft 449 kts 351°
2026-05-01 14:58 48.65260 6.39374 29596 ft 453 kts 355°
2026-05-01 14:58 48.68362 6.39391 28892 ft 452 kts
2026-05-01 14:59 48.71540 6.39688 28093 ft 447 kts
2026-05-01 14:59 48.74619 6.40007 27216 ft 439 kts
2026-05-01 14:59 48.77602 6.40327 26356 ft 432 kts
2026-05-01 14:59 48.80618 6.40642 25492 ft 440 kts
2026-05-01 15:00 48.86746 6.41254 23745 ft 442 kts
2026-05-01 15:00 48.89783 6.41558 22872 ft 432 kts
2026-05-01 15:00 48.92744 6.41860 21998 ft 421 kts
2026-05-01 15:01 48.95639 6.42158 21126 ft 414 kts
2026-05-01 15:01 48.98499 6.42451 20254 ft 409 kts
2026-05-01 15:01 49.01320 6.42739 19382 ft 404 kts
2026-05-01 15:01 49.04103 6.43022 18514 ft 399 kts
2026-05-01 15:02 49.06856 6.43303 17638 ft 394 kts
2026-05-01 15:02 49.08666 6.43488 17064 ft 391 kts
2026-05-01 15:02 49.12260 6.43857 16111 ft 382 kts
2026-05-01 15:02 49.14962 6.44134 15608 ft 396 kts
2026-05-01 15:03 49.17696 6.44415 15107 ft 388 kts
2026-05-01 15:03 49.20365 6.44625 14603 ft 382 kts 358°
2026-05-01 15:03 49.22986 6.44034 14115 ft 380 kts 344°
2026-05-01 15:03 49.25435 6.42585 13623 ft 376 kts 336°
2026-05-01 15:04 49.27824 6.40970 13127 ft 374 kts 335°
2026-05-01 15:04 49.30159 6.39357 12636 ft 371 kts 335°
2026-05-01 15:04 49.32497 6.37734 12137 ft 368 kts 335°
2026-05-01 15:04 49.34830 6.36120 11639 ft 366 kts 335°
2026-05-01 15:05 49.37141 6.34519 11143 ft 363 kts 335°
2026-05-01 15:05 49.39433 6.32932 10636 ft 360 kts 335°
2026-05-01 15:05 49.41719 6.31349 10139 ft 358 kts 335°
2026-05-01 15:05 49.43977 6.29774 9645 ft 355 kts 335°
2026-05-01 15:06 49.46154 6.28036 9134 ft 352 kts 322°
2026-05-01 15:06 49.47898 6.25410 8481 ft 352 kts 307°
2026-05-01 15:06 49.49077 6.22194 7740 ft 348 kts 290°
2026-05-01 15:06 49.49581 6.18620 7190 ft 337 kts 274°
2026-05-01 15:07 49.49722 6.15107 6701 ft 319 kts 273°
2026-05-01 15:07 49.49847 6.11794 6208 ft 302 kts 273°
2026-05-01 15:07 49.49962 6.08633 5719 ft 290 kts 273°
2026-05-01 15:07 49.50074 6.05587 5227 ft 280 kts 273°
2026-05-01 15:08 49.50181 6.02635 4741 ft 276 kts 273°
2026-05-01 15:08 49.50339 5.99622 4233 ft 290 kts 281°
2026-05-01 15:08 49.51076 5.96715 3766 ft 294 kts 301°
2026-05-01 15:08 49.52469 5.94494 3359 ft 286 kts 331°
2026-05-01 15:09 49.54284 5.93840 3112 ft 255 kts
2026-05-01 15:09 49.55821 5.94844 2879 ft 243 kts 42°
2026-05-01 15:09 49.56605 5.97062 2753 ft 231 kts 82°
2026-05-01 15:09 49.56624 5.99522 2774 ft 228 kts 90°
2026-05-01 15:10 49.56622 6.01866 2765 ft 222 kts 90°
2026-05-01 15:10 49.57189 6.06334 2783 ft 209 kts 63°
2026-05-01 15:10 49.57854 6.08265 2700 ft 205 kts 60°
2026-05-01 15:11 49.58545 6.10138 2452 ft 195 kts 60°
2026-05-01 15:11 49.59801 6.13507 1987 ft 167 kts 60°
2026-05-01 15:11 49.60366 6.15023 1750 ft 160 kts 60°
2026-05-01 15:12 49.60910 6.16485 1536 ft 155 kts 60°
2026-05-01 15:12 49.61955 6.19321 1216 ft 146 kts 61°
2026-05-01 15:12 49.62368 6.20405 1223 ft 90 kts 60°
2026-05-01 15:13 49.62873 6.21298 1220 ft 11 kts 32°
2026-05-01 15:14 49.62880 6.21304 1220 ft 0 kts 32°
2026-05-01 15:14 49.62886 6.21310 1220 ft 4 kts 31°
2026-05-01 15:15 49.62974 6.21391 1219 ft 11 kts 36°
2026-05-01 15:15 49.62982 6.21400 1219 ft 0 kts 37°
2026-05-01 15:16 49.63019 6.21470 1219 ft 14 kts 64°
2026-05-01 15:16 49.63121 6.21615 1219 ft 9 kts 334°
2026-05-01 15:17 49.63235 6.21526 1218 ft 8 kts 341°
2026-05-01 15:18 49.63295 6.21722 1218 ft 0 kts 64°
2026-05-01 15:18 49.63305 6.21747 1218 ft 9 kts 57°
2026-05-01 15:19 49.63361 6.21743 1218 ft 0 kts 332°